Location: Ariel
(45.9570°N, 122.5700°W)
Time: 02:21:29
(UTC-07:00)

Tiros 1 - Pass Details

Date: 20 July 2019
Orbit: 631 x 664 km, 48.4° (Epoch: 23 August)

Event Time Altitude Azimuth Distance (km) Brightness Sun altitude
Rises 16:40:50 0° 278° (W) 2,997 11.3 41.4°
Reaches altitude 10° 16:43:12 10° 281° (WNW) 2,083 10.7 41.0°
Maximum altitude 16:48:00 66° 4° (N) 726 7.9 40.2°
Drops below altitude 10° 16:52:46 10° 87° (E) 2,073 9.4 39.4°
Sets 16:55:08 0° 90° (E) 2,980 10.1 39.0°
